[[{"header":{"parameterUnit":"m.s-1","parameterCategory":1,"la1":30.2991,"la2":30.254,"lo1":-89.0895,"lo2":-89.0444,"dy":0.0017,"dx":0.0017,"nx":28,"ny":28,"refTime":"2025-09-16T21:00:00:Z","depth":0,"parameterNumber":2,"parameterNumberName":"U-component_of_WINDS"},"data":[0,0,0,0,0,0,0,0,0,0,0,0,0,0,0,0,0,0,0,0,0,0,0,0,0,0,0,0,0,0,0,0,0,0,0,0,0,0,0,0,0,0,0,0,0,0,0,0,0,0,0,0,0,0,0,0,0,0,-0.7445,-0.7444,0,-0.7303,-0.7301,-0.7299,-0.7221,-0.7221,-0.722,-0.722,-0.7073,-0.707,-0.7066,0,0,0,0,0,0,0,0,0,0,0,0,0,-0.7652,-0.7649,-0.7446,-0.7444,-0.7442,-0.7303,-0.7301,-0.7299,-0.7221,-0.7221,-0.722,-0.722,-0.7074,-0.707,-0.7066,0,0,0,0,0,0,0,0,0,0,0,0,0,-0.7541,-0.7648,-0.7446,-0.7386,-0.7379,-0.7303,-0.7301,-0.7298,-0.7221,-0.7221,-0.722,-0.722,-0.7076,-0.707,-0.7065,-0.7037,0,0,-0.7048,-0.7045,0,0,0,0,0,0,0,0,-0.7548,-0.7534,-0.7397,-0.739,-0.7383,-0.7279,-0.732,-0.7211,-0.7221,-0.7281,-0.722,-0.722,-0.7142,-0.7131,-0.7105,-0.703,-0.7024,-0.7047,-0.7044,-0.7042,-0.704,0,0,0,0,0,0,0,-0.7556,-0.754,-0.7389,-0.7395,-0.7386,-0.7367,-0.7351,-0.7299,-0.7215,-0.7276,-0.727,-0.7254,-0.7138,-0.711,-0.7101,-0.7021,-0.7048,-0.7043,-0.7039,-0.7037,-0.692,-0.692,0,0,0,0,0,0,-0.7573,-0.7547,-0.7393,-0.7385,-0.7466,-0.7364,-0.7346,-0.7313,-0.7215,-0.72,-0.7254,-0.7251,-0.712,-0.7107,-0.7095,-0.7058,-0.7042,-0.7036,-0.7033,-0.692,-0.692,-0.692,0,0,0,0,0,0,-0.7578,-0.756,-0.7399,-0.7464,-0.7442,-0.7361,-0.7324,-0.731,-0.7282,-0.7199,-0.7184,-0.7241,-0.7119,-0.7103,-0.7053,-0.7051,-0.7034,-0.7029,-0.6919,-0.692,-0.692,-0.6982,0,0,0,0,0,0,-0.7584,-0.7562,-0.755,-0.7464,-0.7439,-0.7359,-0.7324,-0.7307,-0.7273,-0.7267,-0.7183,-0.7169,-0.7118,-0.7062,-0.7047,-0.7044,-0.7024,-0.6919,-0.6919,-0.692,-0.6979,-0.6984,-0.6988,0,0,0,0,0,-0.7591,-0.7572,-0.755,-0.7532,-0.7422,-0.7359,-0.7344,-0.7286,-0.7273,-0.7261,-0.7208,-0.7171,-0.7054,-0.7057,-0.704,-0.7035,-0.6919,-0.6919,-0.692,-0.6977,-0.6983,-0.6988,0,0,0,0,0,0,-0.7658,-0.756,-0.7534,-0.7486,-0.7432,-0.7346,-0.7328,-0.7294,-0.7241,-0.7238,-0.7168,-0.715,-0.7107,-0.7065,-0.707,-0.7004,-0.6983,-0.698,-0.7032,-0.7037,-0.7042,-0.7052,-0.702,0,0,0,0,0,-0.7668,-0.7625,-0.7541,-0.7507,-0.7481,-0.741,-0.738,-0.734,-0.7281,-0.7257,-0.72,-0.7144,-0.7095,-0.7064,-0.7014,-0.6974,-0.6955,-0.6962,-0.6966,-0.697,-0.6969,-0.6947,-0.695,-0.6922,-0.6922,-0.6922,0,0,-0.7686,-0.7627,-0.7604,-0.7519,-0.7472,-0.743,-0.739,-0.7346,-0.7314,-0.725,-0.7199,-0.7157,-0.709,-0.7045,-0.7023,-0.701,-0.6973,-0.6971,-0.6975,-0.6971,-0.6948,-0.6951,-0.6953,-0.6922,-0.6922,-0.6922,0,0,-0.7698,-0.7649,-0.7616,-0.7571,-0.7501,-0.7454,-0.7447,-0.7367,-0.7336,-0.7284,-0.7236,-0.7198,-0.7114,-0.7069,-0.7035,-0.7035,-0.7,-0.7021,-0.7043,-0.7023,-0.7025,-0.7027,-0.7028,-0.703,-0.7019,-0.7019,-0.7019,0,-0.773,-0.7664,-0.7604,-0.7563,-0.7528,-0.747,-0.7437,-0.7396,-0.7313,-0.7291,-0.7278,-0.7174,-0.7124,-0.707,-0.707,-0.7044,-0.7035,-0.7029,-0.703,-0.7031,-0.7031,-0.7032,-0.7033,-0.7022,-0.7022,-0.7022,-0.7021,0,-0.7707,-0.7662,-0.7644,-0.7568,-0.7531,-0.7494,-0.743,-0.74,-0.7365,-0.732,-0.727,-0.7209,-0.7147,-0.7132,-0.7096,-0.7073,-0.7067,-0.7043,-0.702,-0.7038,-0.7038,-0.7037,-0.7027,-0.7026,-0.7025,-0.7024,0,0,-0.7754,-0.7648,-0.7642,-0.7608,-0.7528,-0.7493,-0.7455,-0.7396,-0.7372,-0.7318,-0.7286,-0.7218,-0.7196,-0.7158,-0.7117,-0.71,-0.7106,-0.7078,-0.7075,-0.7086,-0.708,-0.7099,-0.71,-0.7083,-0.7083,-0.7083,-0.7086,0,-0.7755,-0.7685,-0.7631,-0.7582,-0.7541,-0.7487,-0.7454,-0.7403,-0.7361,-0.7321,-0.7275,-0.7229,-0.7202,-0.718,-0.716,-0.711,-0.7104,-0.7109,-0.7053,-0.7052,-0.7072,-0.7099,-0.7118,-0.7124,-0.7085,-0.7085,-0.7085,0,-0.7746,-0.7696,-0.7643,-0.7571,-0.7552,-0.7523,-0.7466,-0.7428,-0.737,-0.7341,-0.7301,-0.7259,-0.7219,-0.7201,-0.7145,-0.715,-0.7125,-0.7097,-0.7096,-0.7088,-0.707,-0.7094,-0.7124,-0.7126,-0.7084,-0.7084,-0.7084,0,-0.7788,-0.7707,-0.7665,-0.7637,-0.7552,-0.7534,-0.7497,-0.7439,-0.7408,-0.7358,-0.7337,-0.7283,-0.7254,-0.7214,-0.716,-0.7152,-0.7111,-0.7088,-0.7087,-0.7088,-0.708,-0.7081,-0.7108,-0.7063,-0.7063,-0.7063,-0.7063,0,-0.7795,-0.7764,-0.7683,-0.7657,-0.7623,-0.7563,-0.7531,-0.749,-0.7439,-0.7405,-0.7355,-0.7325,-0.7256,-0.7218,-0.7175,-0.7137,-0.7124,-0.71,-0.7089,-0.7105,-0.7108,-0.7087,-0.7085,-0.7063,-0.7063,-0.7063,-0.7063,0,-0.7834,-0.7778,-0.773,-0.7654,-0.7635,-0.7613,-0.7548,-0.7522,-0.7479,-0.7438,-0.7425,-0.7357,-0.731,-0.7253,-0.7186,-0.7158,-0.7125,-0.7108,-0.7145,-0.7138,-0.7141,-0.7142,-0.7155,-0.7155,-0.7111,-0.7111,-0.7112,0,-0.7842,-0.7818,-0.7741,-0.7715,-0.7681,-0.764,-0.7608,-0.755,-0.7519,-0.7453,-0.7436,-0.7386,-0.7342,-0.727,-0.7215,-0.7165,-0.7147,-0.7156,-0.7139,-0.7157,-0.7149,-0.7151,-0.715,-0.716,-0.716,-0.7161,-0.7161,0,-0.7862,-0.7837,-0.7794,-0.7742,-0.7706,-0.7662,-0.7616,-0.7598,-0.7531,-0.7499,-0.7451,-0.7418,-0.7352,-0.7303,-0.7248,-0.7211,-0.7176,-0.7168,-0.7165,-0.718,-0.7203,-0.7192,-0.7157,-0.7167,-0.7166,-0.7166,-0.7166,-0.7166,-0.7886,-0.7864,-0.7807,-0.7761,-0.7721,-0.768,-0.7653,-0.7608,-0.7567,-0.751,-0.7478,-0.7432,-0.7377,-0.7299,-0.7264,-0.7228,-0.7215,-0.721,-0.7209,-0.7209,-0.7215,-0.721,-0.7217,-0.7217,-0.7217,-0.7216,-0.7216,0,-0.7905,-0.7867,-0.7826,-0.7764,-0.7729,-0.7701,-0.7649,-0.7622,-0.7582,-0.7535,-0.7494,-0.7441,-0.7394,-0.7338,-0.7288,-0.727,-0.7253,-0.7259,-0.726,-0.7252,-0.7228,-0.7236,-0.7274,-0.7274,-0.7274,-0.7274,-0.7274,-0.7274,-0.7911,-0.7871,-0.784,-0.7782,-0.7744,-0.7698,-0.7672,-0.7635,-0.7597,-0.754,-0.7502,-0.7466,-0.7415,-0.7362,-0.7319,-0.7304,-0.7288,-0.73,-0.728,-0.7259,-0.7253,-0.7249,-0.7256,-0.7297,-0.7297,-0.7306,-0.7307,-0.7307]},{"header":{"parameterUnit":"m.s-1","parameterCategory":1,"la1":30.2991,"la2":30.254,"lo1":-89.0895,"lo2":-89.0444,"dy":0.0017,"dx":0.0017,"nx":28,"ny":28,"refTime":"2025-09-16T21:00:00:Z","depth":0,"parameterNumber":3,"parameterNumberName":"V-component_of_WINDS"},"data":[0,0,0,0,0,0,0,0,0,0,0,0,0,0,0,0,0,0,0,0,0,0,0,0,0,0,0,0,0,0,0,0,0,0,0,0,0,0,0,0,0,0,0,0,0,0,0,0,0,0,0,0,0,0,0,0,0,0,3.0247,3.0247,0,3.0249,3.0249,3.0249,3.0299,3.0301,3.0302,3.0303,3.0299,3.0298,3.0297,0,0,0,0,0,0,0,0,0,0,0,0,0,3.028,3.0279,3.0247,3.0247,3.0247,3.0249,3.0249,3.0249,3.0299,3.0301,3.0302,3.0304,3.03,3.0298,3.0297,0,0,0,0,0,0,0,0,0,0,0,0,0,3.0272,3.0279,3.0247,3.0272,3.0274,3.0249,3.0249,3.0249,3.0299,3.0301,3.0303,3.0304,3.03,3.0298,3.0296,3.0245,0,0,3.029,3.0289,0,0,0,0,0,0,0,0,3.0272,3.0271,3.0268,3.027,3.0273,3.0276,3.026,3.0248,3.0298,3.0289,3.0303,3.0305,3.029,3.0289,3.0285,3.0245,3.0245,3.029,3.0289,3.0288,3.0288,0,0,0,0,0,0,0,3.0273,3.0271,3.0248,3.0268,3.0271,3.0282,3.0283,3.0257,3.0278,3.029,3.0294,3.0294,3.0291,3.0286,3.0285,3.0245,3.029,3.0288,3.0287,3.0286,3.0162,3.016,0,0,0,0,0,0,3.0271,3.0271,3.0247,3.0248,3.0278,3.0279,3.0281,3.0273,3.0279,3.0282,3.0292,3.0296,3.0289,3.0287,3.0285,3.0224,3.0288,3.0286,3.0285,3.0164,3.0161,3.0159,0,0,0,0,0,0,3.0271,3.0268,3.0247,3.026,3.0259,3.0277,3.0268,3.0272,3.0267,3.028,3.0284,3.0284,3.029,3.0288,3.0255,3.0225,3.0285,3.0284,3.0167,3.0163,3.016,3.0103,0,0,0,0,0,0,3.0272,3.0268,3.025,3.026,3.0258,3.0219,3.0266,3.0271,3.0264,3.027,3.0273,3.0276,3.0292,3.0257,3.0253,3.0223,3.0282,3.0169,3.0165,3.0161,3.0107,3.0098,3.009,0,0,0,0,0,3.0273,3.0232,3.0249,3.0246,3.0236,3.0217,3.0216,3.0236,3.0262,3.0243,3.0251,3.0275,3.0229,3.0254,3.0249,3.0218,3.0171,3.0166,3.0162,3.0111,3.01,3.009,0,0,0,0,0,0,3.0216,3.0234,3.0252,3.0214,3.0214,3.0225,3.0202,3.0224,3.0215,3.022,3.0244,3.0245,3.0207,3.021,3.0237,3.0168,3.0204,3.0198,3.0168,3.0157,3.0149,3.0148,3.028,0,0,0,0,0,3.02,3.0185,3.0201,3.0165,3.0164,3.0183,3.0176,3.0192,3.0192,3.0191,3.0197,3.0195,3.018,3.0169,3.0156,3.0109,3.0109,3.0085,3.0077,3.0069,3.0063,3.0037,3.0026,3.0144,3.0144,3.0144,0,0,3.0164,3.0172,3.0161,3.0154,3.0156,3.0138,3.0182,3.0162,3.0148,3.0188,3.0157,3.0162,3.016,3.012,3.0102,3.012,3.0031,3.0063,3.0057,3.0055,3.0031,3.002,3.001,3.014,3.0141,3.0141,0,0,3.009,3.0096,3.0067,3.0068,3.0071,3.0084,3.0077,3.0086,3.0091,3.0061,3.009,3.0074,3.0048,3.0045,3.004,2.9967,2.9988,2.9962,2.9915,2.989,2.988,2.9872,2.9844,2.9834,2.9956,2.9956,2.9956,0,3.0045,3.0021,3.0048,3.0026,3.0021,3.0059,3.0028,3.0028,3.0025,3.002,3.0042,3.001,3.0011,2.997,2.9953,2.9948,2.9939,2.996,2.988,2.9872,2.9865,2.9838,2.9828,2.9953,2.9953,2.9953,2.9954,0,2.9965,2.9948,2.9924,2.9923,2.9916,2.9889,2.991,2.9899,2.9917,2.9927,2.9896,2.99,2.9888,2.988,2.9896,2.9841,2.9852,2.9876,2.9913,2.985,2.9825,2.9816,2.9948,2.9949,2.995,2.9951,0,0,2.9853,2.9869,2.9859,2.9859,2.9866,2.9852,2.9827,2.9817,2.9807,2.9804,2.9782,2.976,2.9783,2.9777,2.9794,2.9772,2.9711,2.9799,2.9799,2.9781,2.9649,2.9629,2.9617,2.9727,2.9725,2.9723,2.9648,0,2.978,2.974,2.9764,2.9719,2.9703,2.9739,2.9717,2.9717,2.9727,2.9713,2.9722,2.9705,2.9738,2.9735,2.9715,2.9723,2.9685,2.9729,2.9704,2.9702,2.9701,2.9604,2.9583,2.9511,2.9639,2.9637,2.9636,0,2.969,2.9685,2.9639,2.965,2.9643,2.9623,2.9616,2.9604,2.9604,2.9613,2.9607,2.9629,2.9603,2.9641,2.9605,2.9634,2.9626,2.9628,2.9626,2.9622,2.9664,2.9596,2.949,2.9478,2.9622,2.9623,2.9624,0,2.961,2.9593,2.9563,2.9562,2.9574,2.9558,2.9562,2.9565,2.9558,2.9552,2.9547,2.9537,2.953,2.9521,2.9539,2.9565,2.9499,2.9539,2.9503,2.9502,2.9485,2.9485,2.9373,2.9483,2.9483,2.9483,2.9484,0,2.9525,2.9495,2.9528,2.9509,2.9476,2.9504,2.9469,2.9477,2.948,2.9461,2.9492,2.9474,2.95,2.9484,2.9497,2.9464,2.9461,2.9465,2.9469,2.9461,2.9461,2.9454,2.9459,2.9481,2.9481,2.9482,2.9482,0,2.943,2.9451,2.9421,2.9435,2.9438,2.9412,2.9423,2.9406,2.9418,2.9395,2.9391,2.9409,2.9392,2.9409,2.9392,2.9402,2.9356,2.9368,2.9356,2.9359,2.9321,2.9323,2.9199,2.9184,2.9305,2.9304,2.9303,0,2.9373,2.9351,2.9364,2.9355,2.9358,2.9343,2.9336,2.9362,2.9354,2.9354,2.9335,2.9322,2.9311,2.9282,2.9292,2.9279,2.9289,2.9247,2.9287,2.928,2.9286,2.9286,2.9284,2.9238,2.9236,2.9235,2.9234,0,2.927,2.9282,2.9272,2.9266,2.9258,2.9254,2.9251,2.9242,2.9269,2.9258,2.9242,2.9234,2.9218,2.9203,2.9194,2.9195,2.9218,2.9222,2.9212,2.9203,2.9197,2.9198,2.9331,2.9224,2.9225,2.9226,2.9226,2.9227,2.9191,2.9173,2.9179,2.9167,2.9169,2.9166,2.915,2.9162,2.9149,2.914,2.9156,2.9135,2.9136,2.9127,2.9126,2.9108,2.9126,2.9113,2.9109,2.9105,2.9098,2.9202,2.9107,2.9107,2.9108,2.9108,2.9108,0,2.9087,2.9094,2.9083,2.908,2.907,2.9096,2.9095,2.9084,2.9067,2.9067,2.9057,2.9038,2.9024,2.9034,2.9021,2.9006,2.9016,2.9001,2.9001,2.9001,2.9084,2.9093,2.8993,2.8993,2.8993,2.8993,2.8993,2.8993,2.9032,2.9003,2.9015,2.8986,2.8993,2.8974,2.8971,2.8969,2.8969,2.8947,2.8937,2.8944,2.8948,2.8936,2.8923,2.8926,2.8919,2.89,2.8907,2.8984,2.8995,2.9006,2.9014,2.8899,2.8899,2.8825,2.8824,2.8824]}]]